Location: Budapest
(47.4979°N, 19.0402°E)
Time: 23:35:02
(UTC+01:00)

ISS - Pass Details

Date: 01 October 2020
Orbit: 417 x 420 km, 51.6° (Epoch: 26 October)

Event Time Altitude Azimuth Distance (km) Brightness Sun altitude
Rises 21:07:27 0° 291° (WNW) 2,370 1.3 -27.8°
Reaches altitude 10° 21:09:41 10° 281° (W) 1,503 -0.1 -28.1°
Enters shadow 21:10:43 17° 271° (W) 1,147 -0.9 -28.3°
